Weather History for Arctic Village, AK

Change the Weather History Date:

Friday, October 28, 2011

  Actual Average Record
Temperature  
Mean Temperature -8 °F -  
Max Temperature -2 °F 13 °F 28 °F (1992)
Min Temperature -14 °F -10 °F -35 °F (1970)
Degree Days  
Heating Degree Days 73    
Moisture  
Dew Point -14 °F    
Average Humidity 77    
Maximum Humidity 92    
Minimum Humidity 64    
Precipitation  
Precipitation 0.00 in - - ()
Sea Level Pressure  
Sea Level Pressure 29.40 in    
Wind  
Wind Speed 2 mph (NNE)    
Max Wind Speed 6 mph    
Max Gust Speed -    
Visibility 10 miles    
Events      
Averages and records for this station are not official NWS values.
T = Trace of Precipitation, MM = Missing Value Source: NWS Daily Summary

Daily Weather History Graph

Daily Weather History Graph

Search for Another Location

Airport:

Trip Planner

Search our weather history database for the weather conditions in past years. The results will help you decide how hot, cold, wet, or windy it might be!

Date:

Astronomy

Oct. 28, 2011 Rise Set
Actual Time 9:37 AM AKDT 5:13 PM AKDT
Civil Twilight 8:34 AM AKDT 6:16 PM AKDT
Nautical Twilight 7:28 AM AKDT 7:22 PM AKDT
Astronomical Twilight 6:23 AM AKDT 8:26 PM AKDT
Moon No Moon Rise No Moon Set
Length of Visible Light 9h 41m
Length of Day
7h 35m
Waxing Crescent, 6% of the Moon is Illuminated
Oct 28
Waxing Crescent
Nov 2
First Quarter
Nov 10
Full
Nov 18
Last Quarter
Nov 24
New

Hourly Weather History & Observations

Time (AKDT) Temp. Windchill Dew Point Humidity Pressure Visibility Wind Dir Wind Speed Gust Speed Precip Events Conditions
12:16 AM -9.4 °F - -13.0 °F 84% 29.51 in 10.0 mi Calm Calm - N/A   Clear
12:36 AM -9.4 °F -18.6 °F -18.4 °F 65% 29.50 in 10.0 mi NNE 3.5 mph - N/A   Clear
12:56 AM -11.2 °F -20.6 °F -14.8 °F 84% 29.50 in 10.0 mi NE 3.5 mph - N/A   Clear
1:16 AM -9.4 °F -20.9 °F -14.8 °F 77% 29.50 in 10.0 mi NE 4.6 mph - N/A   Clear
1:36 AM -9.4 °F - -13.0 °F 84% 29.49 in 10.0 mi Calm Calm - N/A   Clear
1:56 AM -11.2 °F -20.6 °F -18.4 °F 70% 29.49 in 10.0 mi NNE 3.5 mph - N/A   Clear
2:16 AM -9.4 °F - -16.6 °F 71% 29.48 in 10.0 mi Calm Calm - N/A   Clear
2:36 AM -9.4 °F - -11.2 °F 92% 29.48 in 10.0 mi Calm Calm - N/A   Clear
2:56 AM -7.6 °F - -13.0 °F 77% 29.49 in 10.0 mi Calm Calm - N/A   Clear
3:16 AM -9.4 °F -18.6 °F -16.6 °F 71% 29.48 in 10.0 mi NE 3.5 mph - N/A   Clear
3:36 AM -9.4 °F -20.9 °F -16.6 °F 71% 29.47 in 10.0 mi ENE 4.6 mph - N/A   Clear
3:56 AM -9.4 °F -22.7 °F -14.8 °F 77% 29.46 in 10.0 mi NNE 5.8 mph - N/A   Clear
4:16 AM -9.4 °F -18.6 °F -14.8 °F 77% 29.46 in 10.0 mi NE 3.5 mph - N/A   Clear
4:36 AM -9.4 °F -18.6 °F -14.8 °F 77% 29.46 in 10.0 mi NNE 3.5 mph - N/A   Clear
4:56 AM -14.8 °F - -20.2 °F 77% 29.45 in 10.0 mi Calm Calm - N/A   Clear
5:16 AM -11.2 °F - -18.4 °F 70% 29.44 in 10.0 mi Calm Calm - N/A   Clear
5:36 AM -11.2 °F -23.0 °F -14.8 °F 84% 29.44 in 10.0 mi NNE 4.6 mph - N/A   Clear
5:56 AM -11.2 °F - -18.4 °F 70% 29.44 in 10.0 mi Calm Calm - N/A   Clear
6:16 AM -14.8 °F -24.8 °F -16.6 °F 92% 29.43 in 10.0 mi North 3.5 mph - N/A   Clear
6:36 AM -9.4 °F -20.9 °F -11.2 °F 92% 29.42 in 10.0 mi NE 4.6 mph - N/A   Clear
6:56 AM -11.2 °F -23.0 °F -18.4 °F 70% 29.42 in 10.0 mi NE 4.6 mph - N/A   Clear
7:16 AM -11.2 °F -20.6 °F -18.4 °F 70% 29.42 in 10.0 mi NE 3.5 mph - N/A   Clear
7:36 AM -9.4 °F -22.7 °F -11.2 °F 92% 29.42 in 10.0 mi NNE 5.8 mph - N/A   Clear
7:56 AM -11.2 °F - -16.6 °F 77% 29.41 in 10.0 mi Calm Calm - N/A   Clear
8:16 AM -11.2 °F -20.6 °F -20.2 °F 64% 29.41 in 10.0 mi NNE 3.5 mph - N/A   Clear
8:36 AM -11.2 °F - -14.8 °F 84% 29.41 in 10.0 mi Calm Calm - N/A   Clear
8:56 AM -7.6 °F -18.8 °F -11.2 °F 84% 29.40 in 10.0 mi North 4.6 mph - N/A   Clear
9:16 AM -11.2 °F - -20.2 °F 64% 29.40 in 10.0 mi Calm Calm - N/A   Clear
9:36 AM -11.2 °F - -16.6 °F 77% 29.40 in 10.0 mi Calm Calm - N/A   Clear
9:56 AM - - - N/A% 29.39 in 10.0 mi NNE 3.5 mph - N/A   Clear
10:16 AM -11.2 °F -20.6 °F -16.6 °F 77% 29.40 in 10.0 mi NNE 3.5 mph - N/A   Clear
10:36 AM -11.2 °F - -16.6 °F 77% 29.40 in 10.0 mi Calm Calm - N/A   Clear
10:56 AM -11.2 °F - -16.6 °F 77% 29.40 in 10.0 mi Calm Calm - N/A   Clear
11:16 AM -9.4 °F - -14.8 °F 77% 29.39 in 9.0 mi Calm Calm - N/A   Clear
11:36 AM -9.4 °F - -16.6 °F 71% 29.39 in 7.0 mi Calm Calm - N/A   Clear
11:56 AM -9.4 °F - -16.6 °F 71% 29.38 in 10.0 mi Calm Calm - N/A   Clear
12:16 PM -9.4 °F - -13.0 °F 84% 29.38 in 10.0 mi Calm Calm - N/A   Clear
12:36 PM -9.4 °F - -16.6 °F 71% 29.38 in 10.0 mi Calm Calm - N/A   Clear
12:56 PM -7.6 °F - -11.2 °F 84% 29.38 in 10.0 mi Calm Calm - N/A   Clear
1:16 PM -7.6 °F - -14.8 °F 71% 29.38 in 10.0 mi Calm Calm - N/A   Clear
1:36 PM -5.8 °F - -11.2 °F 77% 29.37 in 10.0 mi Calm Calm - N/A   Clear
2:16 PM -5.8 °F - -11.2 °F 77% 29.36 in 10.0 mi Calm Calm - N/A   Clear
2:36 PM -5.8 °F -14.5 °F - N/A% 29.36 in 10.0 mi ENE 3.5 mph - N/A   Clear
2:56 PM -5.8 °F - -11.2 °F 77% 29.36 in 10.0 mi Calm Calm - N/A   Clear
3:16 PM -5.8 °F - -11.2 °F 77% 29.35 in 10.0 mi Calm Calm - N/A   Clear
3:36 PM -5.8 °F - -11.2 °F 77% 29.34 in 10.0 mi Calm Calm - N/A   Clear
3:56 PM -5.8 °F -14.5 °F -11.2 °F 77% 29.34 in 10.0 mi NNW 3.5 mph - N/A   Clear
4:16 PM -5.8 °F - -9.4 °F 84% 29.34 in 10.0 mi Calm Calm - N/A   Clear
4:36 PM -5.8 °F -14.5 °F -9.4 °F 84% 29.33 in 10.0 mi North 3.5 mph - N/A   Partly Cloudy
4:56 PM -4.0 °F - -9.4 °F 78% 29.33 in 10.0 mi Calm Calm - N/A   Scattered Clouds
5:16 PM -4.0 °F - -9.4 °F 78% 29.33 in 10.0 mi Calm Calm - N/A   Scattered Clouds
5:36 PM -2.2 °F - -7.6 °F 78% 29.32 in 10.0 mi Calm Calm - N/A   Partly Cloudy
5:56 PM -2.2 °F - -9.4 °F 71% 29.32 in 10.0 mi Calm Calm - N/A   Mostly Cloudy
6:16 PM -2.2 °F - -7.6 °F 78% 29.32 in 10.0 mi Calm Calm - N/A   Overcast
6:36 PM -2.2 °F - -9.4 °F 71% 29.31 in 10.0 mi Calm Calm - N/A   Overcast
6:56 PM -2.2 °F - -7.6 °F 78% 29.31 in 10.0 mi Calm Calm - N/A   Overcast
7:16 PM -2.2 °F - -7.6 °F 78% 29.31 in 10.0 mi Calm Calm - N/A   Overcast
7:36 PM -2.2 °F - -9.4 °F 71% 29.31 in 10.0 mi Calm Calm - N/A   Overcast
7:56 PM -2.2 °F -12.5 °F -7.6 °F 78% 29.31 in 10.0 mi North 4.6 mph - N/A   Overcast
8:16 PM -0.4 °F - -7.6 °F 72% 29.31 in 10.0 mi Calm Calm - N/A   Overcast
8:36 PM -0.4 °F - -5.8 °F 78% 29.30 in 10.0 mi Calm Calm - N/A   Mostly Cloudy
9:16 PM -0.4 °F - -7.6 °F 72% 29.30 in 9.0 mi Calm Calm - N/A   Scattered Clouds
9:36 PM -0.4 °F -10.4 °F -7.6 °F 72% 29.30 in 9.0 mi North 4.6 mph - N/A   Mostly Cloudy
9:56 PM -2.2 °F -10.4 °F -9.4 °F 71% 29.30 in 10.0 mi NE 3.5 mph - N/A   Overcast
10:16 PM -2.2 °F -14.2 °F -7.6 °F 78% 29.30 in 10.0 mi NNE 5.8 mph - N/A   Overcast
10:36 PM -2.2 °F -10.4 °F -9.4 °F 71% 29.29 in 10.0 mi NE 3.5 mph - N/A   Overcast
10:56 PM -2.2 °F -10.4 °F -7.6 °F 78% 29.29 in 10.0 mi East 3.5 mph - N/A   Overcast
11:16 PM -2.2 °F - -7.6 °F 78% 29.29 in 10.0 mi Calm Calm - N/A   Overcast
11:36 PM -2.2 °F -10.4 °F -7.6 °F 78% 29.29 in 10.0 mi NNW 3.5 mph - N/A   Mostly Cloudy
11:56 PM -2.2 °F - -7.6 °F 78% 29.29 in 10.0 mi Calm Calm - N/A   Mostly Cloudy